Find Yaogan Weixing 7

NORAD ID: 36110 Int'l Des: 2009-069 Owner: ZZB Country: CN Constellation: yaogan operational
LEOCIRCULARRETROGRADESSO

リアルタイム位置

3D地球を読み込み中...

Yaogan Weixing 7について

説明を読み込み中...

次回通過

Passes for default location (London). Set your location on the main map for personalized predictions.

高度履歴

Loading altitude history...

軌道要素

1 36110U 09069A 26107.15777349 .00000314 00000-0 50722-4 0 9992
2 36110 98.0148 353.3788 0023416 234.3726 125.5303 14.77948881880612
Epoch: Apr 17, 2026 • Age: 11 hours

現在のステータス

高度 649.9 km
速度 7.54 km/s
衛星直下点 -80.32°S, 51.98°E
打ち上げ日 Dec 9, 2009
運用期間 16.3 years
タイプ military

技術仕様

分類 Payload
質量 800.00 kg
乾燥質量 800.00 kg
総質量 800.00 kg
長さ 2.00 m
直径 1.50 m
スパン 4.00 m
形状 Box + 2 Pan
製造者 DFHZ
バスタイプ CAST-2000
フェーズステータス In Orbit
所有者/国 ZZB/CN

Most Searched